Wind_Speed
4 4 4 4 4 4 4 5 5 5 5 5 5 5 5 5 5 5 5 5 5 5 5 5 5 5 5 6 6 6 6 6 6 6 6 7 7 7 7 8 8 8 8 8 8 8 8 8 7
5 5 5 5 5 5 5 5 5 5 5 6 6 6 6 6 5 5 5 5 6 6 6 6 6 6 7 7 7 7 7 7 7 7 7 7 8 8 8 9 9 9 9 9 9 9 9 9 8
5 6 6 6 6 5 5 5 5 6 6 6 6 7 7 6 6 6 6 6 6 6 7 7 7 7 7 8 8 9 9 8 8 8 8 8 9 9 9 10 10 11 11 11 11 10 10 9 9
7 6 6 6 6 6 6 7 6 6 6 7 7 7 7 7 7 7 7 7 7 7 8 8 8 8 8 9 9 9 9 9 8 8 9 9 9 9 10 10 11 11 11 10 11 11 11 11 11
7 6 6 7 6 6 7 7 7 7 7 7 7 7 7 7 7 8 7 7 8 9 9 9 9 9 10 10 10 10 10 9 9 9 9 10 10 10 10 10 10 10 10 10 11 11 11 11 12
7 7 6 7 7 7 7 7 7 7 7 8 8 7 7 7 8 8 8 8 9 9 9 9 9 9 9 10 10 10 10 10 10 10 10 10 10 10 10 10 10 10 11 11 11 11 11 12 12
7 7 7 8 7 8 8 8 8 8 8 8 8 8 8 8 8 8 8 9 9 10 10 9 9 10 10 10 10 10 10 10 11 11 11 11 11 11 11 11 11 12 12 12 11 11 12 12 12
6 7 7 8 8 8 9 9 9 9 9 9 9 8 8 8 8 8 8 9 9 9 9 10 10 10 10 11 11 11 11 11 11 11 11 11 11 11 12 12 12 12 12 12 12 12 12 13 13
6 7 7 7 8 9 9 9 9 9 9 9 9 9 8 8 8 8 8 9 9 9 9 10 10 10 10 11 11 11 11 11 11 11 11 11 11 11 12 12 13 13 12 13 13 13 13 13 14
6 7 7 8 8 8 9 10 10 10 10 10 10 9 9 9 9 9 9 9 10 10 10 10 10 11 11 11 11 11 11 11 11 11 12 12 12 12 12 13 13 13 13 13 14 14 14 14 14
8 8 8 9 9 9 9 10 9 10 11 10 9 9 9 9 10 10 10 10 10 11 11 10 11 11 11 11 11 11 11 11 11 12 12 12 12 12 13 13 13 13 14 14 14 14 14 14 14
8 9 10 10 9 9 9 9 10 10 10 10 10 10 10 10 10 10 10 10 11 11 11 11 12 11 11 11 11 11 10 11 11 12 12 12 12 12 13 13 13 13 14 14 14 14 13 13 13
9 9 9 9 9 9 9 9 10 10 10 11 11 11 11 11 11 11 11 11 12 11 12 12 12 11 11 11 11 11 11 11 12 12 12 12 13 12 13 12 13 13 14 14 14 14 14 14 14
9 9 10 10 10 10 10 10 10 11 11 12 12 12 12 12 11 12 12 12 12 13 12 12 12 11 11 11 11 11 11 12 12 12 12 13 13 13 13 13 13 13 14 14 14 14 14 14 14
9 9 9 9 10 10 10 10 10 11 11 12 12 12 12 12 12 12 12 12 12 13 13 12 12 11 11 12 12 12 13 13 13 13 13 13 13 13 13 13 13 14 14 14 14 14 15 14 15
10 10 10 9 9 10 11 11 11 11 12 12 12 13 12 12 12 13 13 13 13 13 13 12 12 12 12 13 12 12 13 13 13 13 12 12 12 13 13 13 13 14 14 14 14 14 15 15 15
11 11 11 11 10 11 11 11 11 12 13 13 13 13 13 13 13 13 13 13 13 13 13 13 13 13 13 13 13 13 13 13 13 13 12 13 13 13 14 13 13 14 14 14 14 15 15 15 15
12 13 13 13 12 12 12 12 12 13 14 14 14 14 13 13 13 13 13 13 13 13 13 13 13 12 13 13 13 13 13 13 13 13 12 12 13 13 13 13 13 14 14 15 15 15 15 15 14
13 14 14 14 14 13 13 13 14 13 14 15 14 15 14 14 14 13 14 13 13 13 14 13 13 13 13 12 12 13 13 12 13 12 12 12 12 13 13 13 13 14 14 14 15 15 15 15 14
14 14 15 15 16 14 15 15 15 15 15 15 15 15 15 15 14 14 14 15 15 14 14 14 13 13 12 13 13 13 12 12 12 12 12 12 12 13 13 14 14 14 14 14 14 14 14 14 14
14 15 16 16 15 15 15 15 14 14 15 17 16 16 17 16 15 15 15 15 15 14 14 14 14 13 14 13 13 13 13 13 13 12 12 13 13 13 14 14 14 14 14 14 14 13 13 13 13
15 15 16 16 16 16 15 15 14 15 15 16 16 16 16 16 15 15 15 15 15 14 14 14 13 13 13 13 14 14 13 13 12 12 13 14 14 14 14 14 14 15 14 14 14 13 13 13 13
16 16 16 15 15 16 16 16 16 16 16 16 16 15 16 16 16 16 16 16 16 16 15 14 14 14 13 13 13 13 14 14 14 14 14 15 15 15 14 15 15 15 15 15 14 13 13 13 14
16 16 15 15 15 15 15 17 18 17 17 17 16 16 16 16 16 17 16 16 16 16 15 14 14 14 14 14 13 13 13 14 14 15 15 15 15 14 15 15 15 15 15 15 14 14 13 14 14
16 16 15 15 15 15 16 18 18 18 17 17 17 17 16 17 16 16 17 16 16 16 16 15 15 15 14 14 14 14 14 14 14 15 15 15 15 15 15 16 16 16 15 15 15 15 15 15 15
16 16 16 15 14 16 16 18 19 18 18 18 19 18 17 17 17 17 17 17 17 17 17 16 16 16 16 16 15 15 15 15 15 16 16 15 15 16 16 17 17 16 16 16 16 16 16 16 16
17 17 16 17 16 17 17 19 20 18 18 19 19 19 18 18 18 18 17 17 17 18 17 17 17 17 17 17 17 17 16 16 16 16 17 17 16 16 17 17 17 17 17 17 17 17 17 18 17
18 18 18 19 19 18 18 19 21 19 19 18 19 19 18 18 18 18 18 18 18 18 18 18 18 18 18 19 18 18 17 17 17 17 17 17 18 18 18 18 18 18 18 18 18 18 18 18 18
19 19 20 20 19 19 20 21 21 20 19 18 19 19 19 19 19 18 18 19 19 19 19 19 19 19 19 19 19 19 18 19 19 18 18 18 18 18 18 18 19 19 19 19 20 19 19 18 18
19 20 20 20 20 20 22 23 22 20 20 20 20 20 20 21 21 20 20 20 20 20 20 20 20 20 20 19 19 19 19 19 19 19 19 19 19 19 19 19 20 20 20 20 20 20 19 18 18
Wind_Direction
250 253 248 247 252 257 263 264 269 272 278 278 279 281 279 280 282 277 271 268 268 264 262 269 271 265 260 256 258 260 268 272 275 274 272 271 272 275 275 276 276 270 263 259 259 258 258 260 260
249 255 252 251 252 252 268 273 278 275 277 275 273 275 277 278 274 272 271 271 271 265 261 267 270 267 264 266 268 269 270 272 273 275 277 276 274 275 276 276 277 273 270 267 265 264 263 264 262
246 250 250 250 253 256 265 273 273 272 272 273 272 272 278 275 273 271 272 272 272 268 267 268 268 266 266 267 272 276 276 278 280 287 286 284 283 281 280 279 278 276 276 273 267 267 265 268 270
243 247 247 243 248 254 263 267 267 270 271 273 274 274 276 276 274 275 275 277 274 273 272 270 269 269 270 270 271 274 278 281 285 289 288 289 289 288 287 285 281 278 276 274 269 265 264 266 268
240 242 242 246 256 255 259 266 270 270 272 276 276 276 277 276 274 276 276 278 279 278 276 273 272 271 273 276 276 276 277 278 281 285 286 287 287 286 287 288 283 281 279 276 273 267 267 267 267
240 241 243 245 252 258 264 270 273 275 275 275 275 276 276 274 273 276 278 280 282 280 277 274 273 274 277 279 279 279 279 280 280 282 284 284 284 282 282 283 285 284 279 278 274 273 271 269 269
240 243 245 250 254 258 265 268 270 274 274 275 278 277 273 271 273 277 280 283 284 282 278 276 275 276 278 278 281 281 280 282 282 282 282 282 283 281 281 280 284 283 278 276 273 271 271 272 270
246 252 253 253 256 261 265 264 265 272 275 279 281 281 278 274 274 279 284 286 287 284 281 280 277 279 280 281 283 283 282 283 284 283 284 284 283 282 284 282 282 283 280 276 274 271 272 273 271
252 258 259 260 260 261 263 263 266 269 271 274 278 279 278 278 279 282 285 287 288 289 287 287 284 284 283 284 285 286 284 284 282 282 284 284 284 282 283 282 283 281 279 276 275 274 273 275 274
258 264 266 265 261 262 263 264 267 268 270 273 276 277 277 279 279 282 286 288 290 292 292 290 286 286 285 285 286 285 285 284 283 283 284 285 284 284 283 282 283 281 278 276 274 274 273 275 274
260 263 265 265 267 267 266 266 269 272 273 275 279 277 275 277 279 283 288 291 292 293 293 293 291 290 287 286 286 284 285 285 282 283 285 284 284 285 284 286 284 281 279 276 275 276 277 276 274
262 265 265 266 267 266 266 269 270 273 278 280 283 278 277 278 280 285 288 292 293 292 294 294 293 291 289 287 286 285 285 287 286 287 288 288 287 287 287 288 287 284 279 278 277 278 277 278 276
263 270 270 272 268 268 267 269 271 273 276 278 283 284 278 280 284 285 287 289 292 293 296 297 294 290 289 286 284 286 286 287 289 291 291 290 289 287 287 289 289 287 282 280 278 279 278 278 279
264 267 268 267 268 269 271 271 270 272 274 277 279 281 280 281 282 283 286 290 291 291 293 296 293 291 290 287 286 288 290 291 291 290 290 289 289 290 291 292 291 290 288 283 280 281 282 282 279
266 267 267 266 268 270 272 271 270 273 275 278 279 281 283 281 282 284 289 291 291 291 292 292 291 290 290 287 287 290 291 291 291 290 288 287 287 289 290 290 291 291 290 288 283 282 283 282 280
263 266 269 267 268 271 272 272 271 274 276 277 279 281 283 282 281 287 292 294 293 293 293 290 290 290 289 288 287 287 290 290 288 287 286 285 287 288 290 290 291 292 291 287 283 283 282 282 281
265 268 270 269 271 273 273 272 271 274 276 276 277 279 279 282 284 287 290 293 295 294 294 294 292 290 288 288 288 286 287 287 286 286 284 285 287 289 290 292 292 290 288 285 282 281 281 281 282
263 264 267 269 274 273 275 275 273 274 276 276 277 279 278 281 285 287 289 292 296 298 298 297 292 290 289 287 288 288 289 287 287 286 285 286 288 289 292 293 293 293 292 289 286 284 283 282 282
261 259 263 267 271 272 276 277 278 277 277 278 278 278 277 281 286 287 288 291 293 294 296 297 295 292 292 291 289 288 289 290 289 287 289 291 291 290 291 292 293 294 294 291 288 285 283 281 284
256 257 262 265 269 272 276 278 278 279 277 277 278 277 277 281 282 283 286 290 293 292 292 292 291 292 292 290 288 289 288 291 290 289 289 291 293 293 293 293 294 295 294 292 289 286 283 281 282
253 254 259 265 271 273 276 276 275 277 275 275 274 275 277 281 281 280 284 288 289 291 291 291 288 288 289 290 288 290 289 287 288 289 291 292 294 294 294 293 294 295 295 293 291 287 286 285 282
254 258 260 265 267 271 276 279 276 277 279 276 274 275 276 279 280 279 283 285 286 288 290 289 288 289 289 290 290 290 288 286 285 287 291 293 293 294 294 293 293 294 295 293 290 287 286 284 283
254 259 261 264 266 268 272 275 275 277 279 278 278 277 276 276 278 279 280 282 285 286 287 287 286 288 289 288 289 288 289 288 287 288 290 292 293 293 294 293 292 292 292 292 289 287 285 283 282
254 255 259 262 264 265 272 271 274 277 278 278 278 276 275 276 277 278 278 280 284 284 285 286 286 285 286 287 287 288 289 288 287 288 289 290 293 293 295 295 295 292 290 288 285 284 284 284 283
251 252 255 260 266 270 273 270 271 277 279 278 279 277 275 277 277 276 277 278 280 281 283 285 284 282 283 284 286 288 289 291 289 288 288 289 292 294 294 294 294 293 290 287 284 282 281 283 282
250 253 255 256 259 269 266 268 272 274 278 278 278 277 277 277 276 277 276 276 278 280 281 284 283 282 281 281 283 286 288 290 290 290 289 290 291 293 295 294 293 292 289 288 287 283 281 281 281
247 248 249 254 255 258 264 269 272 274 274 275 277 279 277 275 275 276 277 278 280 282 281 280 280 280 281 280 280 283 284 287 289 290 290 288 288 290 293 294 292 290 288 288 287 286 284 281 280
250 249 248 249 254 256 259 262 269 273 274 276 278 278 277 275 275 276 277 279 280 280 279 278 278 280 280 280 278 280 283 285 288 289 290 289 288 288 289 290 291 290 288 287 287 286 282 280 279
249 246 248 249 252 255 259 261 266 269 272 275 278 278 275 274 275 276 276 277 278 279 279 278 277 278 279 279 278 279 282 284 285 286 287 289 289 288 289 288 289 290 289 289 287 284 284 281 277
253 250 249 249 251 254 258 264 267 268 270 274 275 276 274 273 274 276 277 277 277 277 278 278 279 277 278 278 278 279 281 283 284 286 285 286 288 289 288 288 289 290 290 290 288 285 282 280 278
Height
5860 5861 5861 5862 5863 5863 5862 5862 5862 5862 5863 5863 5863 5863 5863 5864 5865 5867 5865 5864 5864 5864 5865 5865 5865 5865 5865 5865 5865 5865 5865 5865 5865 5865 5865 5865 5865 5865 5865 5866 5866 5866 5866 5866 5867 5867 5867 5867 5868
5860 5860 5861 5862 5861 5861 5862 5861 5861 5862 5862 5862 5862 5863 5863 5863 5864 5864 5863 5864 5864 5864 5864 5864 5864 5864 5864 5865 5865 5865 5864 5864 5864 5864 5864 5864 5864 5864 5864 5865 5865 5865 5865 5865 5865 5866 5866 5866 5866
5858 5859 5860 5860 5860 5860 5861 5860 5861 5861 5861 5861 5862 5862 5862 5863 5863 5863 5863 5863 5863 5863 5863 5863 5863 5863 5863 5863 5863 5864 5863 5863 5863 5863 5863 5863 5863 5863 5863 5863 5863 5863 5863 5863 5864 5864 5864 5865 5865
5858 5859 5859 5860 5859 5860 5860 5860 5860 5860 5860 5861 5861 5861 5861 5861 5862 5862 5862 5862 5862 5862 5862 5862 5862 5862 5862 5862 5862 5862 5862 5862 5862 5862 5862 5861 5861 5861 5861 5861 5861 5861 5861 5861 5862 5862 5862 5863 5863
5856 5857 5858 5858 5858 5859 5859 5859 5859 5859 5860 5860 5860 5860 5860 5860 5860 5861 5860 5861 5861 5861 5861 5861 5861 5861 5861 5861 5860 5860 5860 5860 5860 5860 5860 5860 5860 5860 5860 5859 5859 5859 5859 5860 5860 5860 5860 5861 5861
5856 5857 5857 5857 5857 5858 5858 5858 5858 5858 5859 5859 5859 5859 5859 5859 5859 5859 5859 5859 5859 5859 5859 5859 5859 5859 5859 5859 5859 5858 5858 5858 5858 5858 5858 5858 5858 5858 5858 5858 5858 5858 5858 5858 5858 5858 5858 5859 5859
5855 5855 5855 5856 5856 5857 5857 5857 5857 5857 5857 5858 5858 5858 5858 5858 5858 5858 5858 5858 5858 5858 5857 5857 5857 5857 5857 5857 5857 5857 5857 5857 5856 5856 5856 5856 5856 5856 5856 5856 5856 5856 5856 5856 5856 5856 5856 5856 5856
5853 5854 5854 5854 5855 5856 5856 5856 5856 5856 5856 5857 5857 5857 5857 5857 5857 5857 5857 5856 5856 5856 5856 5855 5855 5855 5855 5855 5855 5855 5855 5854 5854 5854 5854 5854 5854 5854 5854 5853 5853 5853 5853 5853 5853 5853 5854 5854 5854
5852 5854 5853 5853 5854 5854 5854 5854 5855 5855 5855 5855 5855 5856 5856 5855 5855 5855 5855 5855 5855 5854 5854 5854 5853 5853 5853 5853 5853 5852 5852 5852 5852 5852 5852 5851 5851 5851 5851 5851 5851 5851 5851 5851 5851 5851 5851 5851 5851
5851 5852 5852 5852 5852 5852 5853 5853 5853 5853 5853 5854 5854 5854 5854 5854 5854 5854 5854 5854 5853 5853 5852 5852 5851 5851 5851 5850 5850 5850 5850 5850 5849 5849 5849 5849 5849 5849 5849 5849 5849 5848 5848 5848 5848 5848 5848 5848 5848
5849 5850 5850 5850 5851 5851 5851 5851 5852 5852 5852 5852 5852 5852 5852 5852 5852 5852 5852 5852 5852 5851 5850 5850 5849 5849 5849 5848 5848 5848 5848 5847 5847 5847 5847 5846 5846 5846 5846 5846 5846 5846 5845 5845 5845 5845 5845 5845 5845
5848 5848 5848 5849 5849 5849 5850 5850 5850 5850 5850 5850 5850 5850 5850 5851 5851 5850 5850 5850 5849 5849 5848 5848 5847 5847 5846 5846 5846 5845 5845 5845 5845 5845 5844 5844 5844 5844 5844 5843 5843 5843 5843 5843 5843 5842 5842 5842 5842
5846 5847 5847 5847 5847 5848 5848 5849 5849 5849 5849 5849 5849 5849 5849 5849 5849 5849 5848 5848 5847 5847 5846 5846 5845 5844 5844 5844 5843 5843 5843 5843 5843 5842 5842 5841 5841 5841 5841 5841 5840 5840 5840 5840 5840 5839 5839 5839 5839
5845 5845 5845 5845 5846 5846 5846 5847 5847 5847 5847 5847 5847 5847 5847 5847 5847 5846 5846 5846 5845 5845 5844 5843 5843 5842 5842 5842 5841 5841 5841 5840 5840 5840 5839 5839 5839 5838 5838 5838 5837 5837 5836 5836 5836 5836 5836 5836 5836
5842 5843 5844 5844 5844 5844 5844 5845 5845 5845 5845 5845 5845 5845 5845 5845 5844 5844 5844 5844 5843 5843 5842 5841 5841 5840 5840 5839 5839 5839 5838 5838 5838 5837 5837 5836 5836 5836 5835 5835 5834 5834 5833 5833 5833 5832 5832 5832 5832
5841 5841 5842 5842 5842 5842 5844 5843 5843 5842 5843 5843 5843 5843 5842 5842 5842 5842 5842 5841 5841 5840 5839 5839 5838 5838 5838 5837 5837 5837 5836 5836 5835 5834 5834 5833 5833 5833 5832 5832 5831 5831 5830 5830 5829 5829 5829 5829 5829
5839 5839 5839 5839 5839 5840 5840 5840 5840 5840 5840 5840 5840 5840 5840 5840 5840 5839 5839 5839 5838 5838 5837 5836 5836 5836 5835 5835 5835 5834 5834 5833 5833 5832 5831 5831 5831 5830 5829 5829 5828 5828 5827 5827 5826 5826 5826 5825 5825
5837 5837 5836 5836 5837 5837 5837 5838 5838 5838 5837 5838 5838 5838 5838 5838 5838 5837 5837 5837 5836 5835 5835 5834 5834 5833 5833 5832 5832 5832 5831 5830 5830 5829 5829 5828 5828 5827 5827 5826 5826 5825 5824 5824 5823 5823 5822 5822 5822
5833 5833 5833 5834 5834 5834 5834 5835 5835 5835 5835 5835 5835 5835 5835 5835 5835 5835 5834 5834 5833 5833 5832 5832 5832 5831 5831 5830 5829 5829 5828 5828 5827 5827 5826 5826 5825 5825 5824 5823 5823 5822 5821 5820 5820 5819 5819 5819 5819
5830 5831 5831 5831 5830 5830 5831 5832 5832 5832 5832 5832 5832 5832 5832 5831 5832 5832 5832 5831 5831 5830 5830 5829 5829 5829 5828 5827 5827 5826 5825 5825 5824 5824 5823 5823 5822 5822 5821 5820 5820 5819 5818 5817 5816 5816 5816 5815 5815
5827 5827 5827 5827 5827 5827 5828 5828 5828 5828 5828 5828 5829 5829 5829 5829 5829 5829 5829 5828 5828 5828 5827 5827 5826 5826 5825 5825 5824 5823 5823 5822 5822 5821 5820 5820 5820 5819 5818 5817 5816 5815 5815 5814 5813 5813 5812 5812 5812
5823 5824 5824 5824 5824 5824 5825 5825 5825 5825 5825 5825 5825 5825 5826 5826 5825 5825 5826 5825 5825 5825 5824 5824 5823 5823 5822 5822 5821 5821 5820 5820 5819 5818 5818 5817 5816 5816 5815 5814 5813 5812 5811 5811 5810 5809 5809 5809 5808
5819 5820 5820 5821 5821 5821 5821 5821 5822 5821 5821 5822 5822 5822 5822 5822 5822 5822 5822 5822 5821 5821 5821 5820 5820 5820 5819 5819 5818 5817 5817 5816 5816 5815 5815 5814 5813 5812 5811 5811 5810 5809 5808 5807 5807 5806 5806 5805 5805
5815 5816 5817 5817 5817 5818 5819 5818 5818 5818 5819 5818 5818 5819 5819 5819 5819 5819 5819 5819 5818 5818 5817 5817 5817 5816 5816 5816 5815 5814 5814 5813 5812 5812 5811 5810 5810 5809 5808 5807 5806 5805 5804 5804 5803 5803 5802 5802 5801
5811 5812 5813 5813 5813 5814 5815 5815 5816 5815 5815 5814 5815 5815 5815 5815 5815 5815 5815 5815 5815 5814 5814 5814 5813 5813 5813 5812 5812 5811 5810 5810 5809 5808 5807 5807 5806 5805 5804 5803 5802 5801 5801 5800 5799 5799 5799 5798 5798
5807 5808 5809 5810 5811 5811 5810 5810 5812 5812 5811 5811 5811 5811 5811 5811 5811 5811 5811 5810 5811 5811 5810 5810 5810 5809 5809 5808 5808 5808 5807 5806 5805 5804 5804 5803 5802 5801 5800 5799 5798 5798 5797 5796 5795 5795 5794 5794 5793
5802 5803 5805 5806 5806 5807 5807 5807 5806 5807 5807 5807 5807 5807 5807 5807 5807 5807 5806 5806 5807 5807 5806 5806 5806 5805 5805 5804 5804 5803 5803 5802 5801 5800 5800 5799 5798 5797 5796 5795 5794 5793 5792 5792 5791 5790 5790 5789 5789
5798 5799 5800 5801 5801 5802 5803 5803 5802 5803 5803 5803 5803 5803 5803 5803 5802 5803 5803 5802 5802 5802 5802 5802 5801 5801 5800 5800 5799 5799 5798 5798 5797 5796 5795 5795 5794 5793 5792 5791 5790 5789 5788 5787 5786 5785 5785 5784 5784
5793 5794 5794 5796 5797 5798 5798 5801 5798 5798 5798 5799 5799 5798 5798 5798 5798 5798 5798 5798 5798 5797 5797 5797 5797 5796 5796 5795 5794 5794 5794 5793 5792 5791 5790 5790 5789 5788 5787 5786 5785 5784 5783 5782 5781 5780 5779 5779 5779
5787 5788 5789 5791 5792 5792 5793 5796 5793 5793 5793 5793 5794 5794 5793 5793 5793 5793 5793 5793 5793 5793 5792 5792 5792 5791 5791 5790 5790 5789 5789 5788 5787 5786 5786 5785 5784 5783 5782 5781 5780 5778 5777 5776 5775 5774 5774 5773 5773